Wind_Speed
37 38 39 40 41 41 42 42 42 42 43 43 44 45 47 49 51 53 55 57 58 59 61 61 62 61 61 61 61 62 62 63 63 63 65 65 65 64 63 61 59 56 54
40 41 42 43 44 44 45 45 46 46 47 47 48 49 51 53 54 56 57 58 59 60 60 60 60 59 59 59 60 61 62 63 63 62 61 60 59 57 54 51 48 45 42
42 43 44 45 47 48 49 49 49 50 51 51 52 53 53 54 56 57 58 58 59 59 58 58 57 57 57 58 59 61 61 61 60 58 54 52 49 46 43 40 37 34 32
45 45 46 47 49 50 51 51 52 53 53 53 53 54 55 55 56 57 57 57 57 56 55 55 55 55 56 57 58 59 58 56 52 49 45 42 39 37 34 31 29 28 28
46 47 48 48 49 51 52 53 53 54 54 55 55 55 55 55 56 56 55 55 54 53 53 53 54 55 56 56 55 54 51 47 43 39 35 33 32 30 29 28 27 26 26
45 46 48 49 51 52 53 54 55 55 55 54 54 54 54 54 54 54 53 52 52 51 51 52 53 54 53 52 50 46 42 38 33 30 29 28 28 28 28 28 28 27 26
46 48 50 51 52 54 54 54 54 53 53 53 53 53 53 52 52 51 51 50 50 50 51 51 51 50 48 45 41 38 34 30 28 27 27 27 27 27 27 27 27 26 26
49 50 51 52 52 52 52 51 51 52 52 52 52 52 52 51 50 50 49 49 49 49 49 48 46 43 39 35 33 30 28 27 28 28 28 28 28 27 26 25 24 23 23
49 50 50 50 50 50 50 50 50 51 51 51 51 50 50 49 48 48 48 48 47 46 45 42 38 34 30 27 25 24 25 26 27 28 28 27 26 24 22 21 20 19 19
48 48 48 48 48 49 49 49 49 49 49 49 49 48 48 47 47 47 46 45 43 41 38 35 31 26 23 20 20 21 23 25 26 26 25 23 21 20 19 18 16 16 16
45 45 46 46 46 46 46 46 47 47 47 47 47 47 46 46 45 43 41 39 36 33 30 27 24 19 17 17 18 20 22 23 23 21 19 19 19 18 17 15 15 15 15
42 42 42 42 43 43 44 45 45 45 45 45 45 44 43 41 39 36 34 31 29 26 24 21 17 13 13 15 18 20 20 20 18 17 17 17 17 16 15 14 14 14 15
38 38 39 40 41 41 42 42 42 42 42 41 40 38 36 34 32 30 28 25 23 20 17 13 10 9 11 14 16 17 17 16 15 16 16 16 17 16 15 14 14 14 16
35 36 37 37 38 38 39 39 38 37 36 35 33 32 30 28 26 24 22 19 15 12 8 6 6 8 10 12 13 13 13 13 14 15 15 16 16 16 15 15 14 14 15
33 34 34 35 35 35 34 33 32 31 29 28 27 25 23 21 19 17 14 9 6 3 3 2 3 6 8 10 10 11 12 13 14 16 16 17 17 16 15 15 15 15 16
31 32 32 32 31 29 28 27 26 24 22 21 19 18 16 15 12 9 5 2 4 5 3 1 3 5 7 9 10 11 12 14 16 17 18 19 18 17 16 16 16 17 17
28 28 27 26 24 23 21 20 18 16 15 14 12 11 9 6 3 2 5 8 8 6 5 4 5 7 8 9 11 12 14 15 17 18 20 21 21 20 19 18 19 19 20
23 22 21 19 18 16 15 13 12 11 9 8 7 5 4 4 7 9 11 10 9 7 7 7 8 9 10 11 12 14 15 17 18 20 22 23 23 22 22 21 21 21 22
17 16 15 14 12 11 10 9 7 6 6 6 6 7 9 11 13 13 13 11 10 9 9 9 10 11 12 13 14 15 17 19 21 22 24 25 25 25 24 24 23 23 23
14 13 12 10 9 8 8 7 7 8 8 9 10 12 13 14 14 13 12 11 11 10 11 11 12 13 14 14 15 16 18 20 22 24 25 25 25 25 25 25 24 24 24
13 12 11 10 9 9 9 9 10 11 12 13 14 15 15 14 14 13 12 12 11 12 12 13 13 14 14 15 15 17 18 20 21 23 25 26 27 26 26 26 25 24 24
13 12 12 11 11 11 12 12 13 13 14 14 15 15 14 14 13 12 12 12 12 12 13 13 14 14 14 15 16 17 18 19 20 22 24 25 26 27 27 26 26 25 24
14 13 13 13 13 13 13 14 15 15 15 15 14 14 13 13 12 12 12 12 12 13 13 13 13 14 14 15 16 17 17 18 19 21 22 23 24 25 26 26 26 25 24
15 14 13 14 14 14 15 15 15 15 14 14 14 13 13 12 11 11 11 12 12 13 13 13 13 13 14 15 15 16 16 17 18 19 21 21 22 23 23 23 24 24 24
14 14 14 13 14 14 14 14 14 13 13 13 13 13 12 11 11 11 11 12 12 12 12 13 13 13 13 13 14 15 15 16 17 18 19 20 20 21 21 22 22 22 22
13 13 13 13 13 13 13 13 13 13 12 12 12 11 11 11 11 11 11 11 12 12 12 12 12 12 12 13 13 14 15 15 16 17 17 18 19 19 20 20 21 21 21
Wind_Direction
275 280 284 289 293 296 298 299 300 300 298 297 296 295 293 292 291 291 291 292 293 293 294 296 297 298 298 298 299 299 298 298 298 298 297 296 295 294 293 293 291 290 288
277 281 286 290 293 295 297 297 298 298 297 296 295 294 293 292 292 291 292 292 293 294 295 296 297 298 299 299 300 299 300 300 301 300 300 299 298 297 296 295 293 291 289
281 285 288 290 292 294 295 297 297 296 296 295 295 294 293 292 291 291 292 293 294 295 296 297 298 299 300 300 301 301 302 303 303 303 303 301 300 300 299 298 296 294 291
283 285 288 290 291 292 293 294 294 294 294 294 293 292 291 291 291 291 292 293 295 296 297 298 299 300 301 302 303 304 305 306 306 306 305 304 304 303 303 301 298 296 294
283 285 287 288 289 290 291 292 292 293 292 292 291 290 290 290 291 292 293 295 296 297 298 299 300 302 303 305 306 307 307 308 308 308 308 307 307 306 305 304 301 299 296
282 284 285 287 288 289 290 290 291 291 290 290 290 290 290 291 292 293 295 296 297 298 300 302 303 304 306 307 308 308 309 310 311 311 311 310 308 307 306 304 302 300 296
283 284 286 287 288 288 289 289 289 289 290 290 290 290 291 292 293 294 296 297 298 300 301 303 305 307 308 309 309 310 311 313 314 314 313 312 310 308 307 306 304 302 300
284 286 287 287 288 288 288 289 289 289 290 290 291 291 292 293 294 295 296 298 299 301 303 304 306 307 308 309 309 310 312 314 315 316 316 316 314 313 311 311 309 308 307
286 287 287 288 288 289 289 289 290 290 290 291 291 292 293 294 295 296 297 299 300 302 304 305 306 307 308 308 309 310 312 314 316 318 319 320 320 320 319 319 318 317 317
287 288 288 289 289 290 290 290 290 290 291 292 292 293 294 295 295 297 298 300 301 302 303 304 305 306 307 307 309 312 315 318 320 323 325 328 329 330 329 329 328 328 329
290 290 290 290 290 290 290 290 291 291 292 293 293 294 294 295 296 297 298 299 299 300 301 303 305 306 306 309 312 316 319 323 326 329 332 334 335 336 337 339 340 339 338
290 290 290 290 290 291 291 292 293 293 293 294 294 295 296 296 297 297 297 296 297 297 298 299 301 301 306 313 318 323 327 332 337 340 341 341 342 342 342 344 346 346 344
291 291 291 291 292 293 294 295 295 295 296 296 297 297 297 297 296 296 294 293 293 293 293 293 293 299 311 319 326 331 338 344 349 350 350 347 346 346 347 349 351 352 353
293 294 295 296 297 297 298 298 298 298 298 298 298 297 297 297 296 294 292 291 288 284 277 277 288 306 320 329 338 347 355 359 359 359 357 355 354 354 357 0 0 1 3
299 300 301 301 302 301 301 301 300 299 299 299 299 298 298 297 295 293 290 284 269 231 212 238 306 327 341 352 2 12 16 15 14 11 9 6 7 8 10 13 16 18 19
305 305 305 305 305 304 304 304 303 303 303 303 303 302 301 299 295 289 272 200 154 146 140 101 18 10 16 23 29 33 32 30 28 25 23 22 23 25 29 33 34 35 36
310 310 310 310 309 308 309 309 308 309 310 311 312 312 311 308 298 158 138 133 130 125 108 77 52 45 47 47 48 46 44 40 36 34 34 37 38 42 46 48 48 49 52
317 318 319 318 317 317 318 319 320 323 328 335 342 355 28 83 109 119 121 120 116 107 91 76 68 64 62 61 59 56 52 48 45 44 45 46 48 52 55 57 57 58 61
329 330 331 332 334 336 340 344 350 1 12 26 45 69 87 100 108 112 112 108 104 95 87 83 77 73 70 69 65 63 60 56 53 52 52 53 55 58 59 60 62 63 64
347 350 353 357 3 11 20 31 41 47 57 68 78 88 95 100 103 103 102 99 95 91 90 87 82 79 76 73 70 68 64 61 58 56 57 58 58 59 60 61 63 65 66
9 14 21 29 36 43 50 56 62 70 77 81 86 90 93 95 96 96 95 94 92 93 94 90 88 84 80 76 74 72 68 64 61 60 59 59 60 60 60 60 62 63 64
28 34 41 49 55 60 66 70 74 78 81 84 86 88 89 90 91 93 93 93 94 97 96 93 89 85 82 80 78 75 71 67 64 61 60 59 59 60 60 60 61 61 62
40 47 54 59 63 67 71 74 75 77 79 82 85 86 87 89 91 92 93 95 98 100 99 96 92 89 87 85 81 77 73 69 64 61 59 59 59 59 59 59 59 60 60
46 52 58 62 65 68 71 73 73 75 77 79 82 84 86 89 92 95 96 99 103 104 102 99 96 93 92 88 83 79 74 69 64 61 59 58 57 56 56 55 56 56 56
48 54 59 63 65 67 68 69 70 72 74 76 79 81 84 89 94 99 102 103 106 107 104 102 99 96 93 88 84 79 74 68 64 60 58 56 54 52 51 50 51 51 52
49 55 60 63 64 65 66 67 68 69 72 75 78 81 86 90 95 101 104 107 109 110 108 106 103 98 93 88 83 79 74 69 64 60 56 55 53 51 49 49 50 50 50
Height
5794 5792 5789 5786 5783 5780 5777 5773 5770 5767 5764 5761 5758 5754 5750 5746 5742 5738 5734 5729 5724 5718 5712 5706 5700 5694 5686 5680 5673 5666 5658 5651 5645 5638 5627 5618 5610 5603 5596 5589 5583 5578 5574
5785 5782 5779 5776 5773 5770 5766 5763 5760 5756 5753 5749 5745 5741 5737 5733 5728 5724 5719 5714 5709 5703 5697 5691 5685 5679 5672 5665 5658 5650 5642 5634 5626 5620 5610 5601 5593 5585 5579 5573 5568 5563 5559
5774 5772 5769 5766 5762 5759 5755 5751 5747 5744 5740 5736 5732 5727 5723 5719 5714 5709 5705 5700 5694 5689 5683 5677 5671 5664 5658 5650 5643 5635 5627 5618 5609 5602 5594 5585 5578 5571 5566 5561 5556 5552 5549
5763 5761 5758 5755 5751 5747 5743 5739 5735 5731 5726 5722 5718 5713 5709 5704 5700 5695 5690 5685 5680 5675 5669 5663 5657 5651 5644 5636 5628 5620 5612 5603 5595 5587 5580 5574 5567 5562 5557 5553 5549 5545 5541
5752 5749 5746 5742 5739 5735 5731 5726 5722 5717 5713 5708 5704 5699 5694 5690 5685 5681 5676 5672 5667 5662 5656 5650 5644 5638 5630 5622 5614 5606 5599 5591 5584 5577 5571 5565 5560 5555 5550 5546 5542 5538 5535
5739 5736 5733 5730 5725 5721 5717 5713 5708 5703 5699 5694 5689 5684 5680 5676 5671 5667 5663 5658 5654 5649 5643 5637 5630 5624 5617 5610 5602 5595 5588 5582 5576 5570 5565 5559 5554 5549 5545 5540 5535 5532 5528
5726 5723 5720 5716 5711 5707 5702 5698 5693 5689 5684 5680 5675 5671 5667 5663 5658 5654 5650 5645 5641 5636 5630 5624 5618 5611 5605 5599 5592 5586 5580 5574 5569 5564 5559 5554 5549 5544 5539 5534 5529 5525 5521
5713 5709 5706 5701 5697 5692 5688 5684 5679 5675 5670 5666 5661 5657 5654 5650 5646 5642 5637 5633 5629 5624 5619 5613 5607 5601 5596 5590 5584 5579 5574 5569 5564 5559 5554 5549 5543 5538 5533 5528 5523 5519 5515
5700 5696 5691 5687 5683 5678 5674 5670 5666 5661 5657 5653 5648 5644 5641 5638 5634 5629 5625 5621 5616 5612 5608 5603 5598 5593 5589 5584 5579 5575 5570 5565 5560 5554 5549 5543 5538 5532 5527 5523 5519 5514 5510
5687 5682 5678 5674 5669 5665 5661 5657 5652 5648 5644 5640 5636 5632 5628 5625 5622 5617 5613 5609 5605 5602 5598 5594 5590 5587 5583 5579 5575 5571 5567 5562 5556 5551 5545 5539 5534 5529 5524 5520 5516 5512 5507
5674 5669 5665 5660 5656 5652 5648 5644 5640 5636 5632 5627 5624 5620 5616 5613 5610 5606 5603 5599 5596 5592 5589 5587 5584 5581 5578 5575 5572 5568 5563 5558 5553 5548 5542 5537 5533 5528 5523 5518 5514 5510 5506
5662 5658 5653 5649 5645 5641 5636 5632 5628 5623 5619 5615 5611 5608 5604 5601 5598 5595 5593 5590 5587 5585 5583 5581 5579 5577 5575 5572 5569 5565 5561 5556 5551 5546 5541 5536 5531 5526 5522 5517 5513 5509 5505
5651 5647 5642 5638 5634 5629 5625 5620 5616 5612 5607 5603 5600 5597 5594 5591 5588 5586 5584 5582 5580 5579 5577 5576 5575 5574 5573 5570 5567 5563 5559 5554 5550 5545 5540 5536 5531 5526 5521 5517 5513 5509 5505
5641 5637 5632 5628 5623 5618 5614 5609 5605 5601 5597 5593 5590 5587 5584 5582 5580 5578 5576 5575 5574 5573 5573 5574 5574 5573 5571 5569 5565 5562 5558 5554 5550 5545 5541 5536 5531 5526 5521 5517 5513 5509 5505
5632 5627 5623 5618 5613 5608 5604 5600 5596 5592 5589 5586 5582 5579 5577 5575 5573 5571 5570 5570 5570 5571 5572 5573 5573 5572 5570 5568 5565 5562 5559 5555 5551 5546 5542 5536 5531 5526 5522 5518 5514 5510 5506
5624 5619 5614 5609 5604 5600 5596 5592 5588 5585 5582 5579 5576 5574 5571 5570 5568 5567 5567 5568 5569 5571 5572 5573 5572 5571 5570 5568 5565 5563 5560 5557 5553 5548 5543 5538 5533 5528 5524 5520 5517 5513 5509
5616 5611 5606 5602 5598 5594 5590 5587 5584 5581 5578 5575 5573 5570 5568 5567 5566 5566 5568 5569 5571 5572 5573 5573 5573 5572 5570 5569 5567 5565 5562 5559 5555 5551 5546 5541 5536 5532 5528 5524 5521 5517 5513
5610 5605 5601 5597 5593 5590 5586 5583 5581 5578 5576 5573 5571 5569 5568 5567 5567 5568 5570 5572 5573 5574 5574 5574 5574 5573 5572 5571 5569 5567 5565 5562 5559 5555 5550 5546 5541 5537 5533 5529 5526 5522 5519
5606 5602 5598 5594 5591 5588 5585 5582 5580 5577 5575 5573 5572 5570 5570 5570 5571 5572 5573 5574 5575 5576 5576 5576 5576 5575 5575 5574 5572 5571 5568 5566 5563 5559 5555 5551 5547 5543 5539 5535 5532 5529 5525
5604 5600 5596 5593 5590 5587 5585 5583 5581 5579 5577 5575 5574 5574 5574 5574 5575 5576 5576 5577 5578 5578 5578 5578 5578 5578 5578 5577 5576 5574 5572 5570 5567 5564 5560 5557 5553 5549 5546 5542 5539 5536 5533
5603 5600 5597 5594 5591 5589 5587 5585 5583 5581 5580 5579 5578 5578 5578 5578 5579 5579 5580 5580 5581 5581 5582 5582 5582 5582 5581 5581 5579 5578 5576 5575 5572 5570 5566 5563 5559 5556 5552 5549 5546 5543 5540
5604 5601 5598 5596 5594 5592 5590 5588 5587 5586 5584 5584 5583 5583 5583 5583 5583 5583 5583 5584 5584 5585 5585 5585 5586 5585 5585 5584 5584 5582 5581 5579 5577 5575 5572 5569 5566 5562 5559 5556 5553 5550 5547
5607 5604 5602 5600 5598 5596 5594 5593 5592 5590 5589 5588 5588 5587 5587 5587 5587 5587 5587 5587 5588 5588 5589 5589 5590 5589 5589 5588 5588 5587 5586 5584 5582 5580 5578 5575 5572 5569 5566 5563 5560 5556 5553
5611 5608 5606 5604 5602 5601 5599 5598 5596 5595 5594 5593 5592 5592 5591 5591 5591 5591 5591 5591 5592 5592 5593 5593 5593 5593 5593 5593 5592 5591 5590 5589 5587 5585 5583 5580 5577 5575 5572 5569 5566 5563 5560
5614 5612 5610 5609 5607 5605 5604 5602 5601 5600 5598 5597 5596 5596 5595 5595 5595 5595 5595 5595 5596 5596 5597 5597 5597 5597 5597 5597 5596 5595 5594 5593 5591 5590 5588 5585 5582 5580 5577 5574 5571 5568 5565
5618 5616 5614 5613 5611 5610 5608 5607 5605 5604 5602 5601 5600 5599 5599 5599 5599 5599 5599 5599 5600 5600 5600 5601 5601 5601 5601 5601 5600 5599 5598 5597 5596 5594 5592 5589 5587 5584 5582 5579 5576 5573 5570